TimeCST,TemperatureF,Dew PointF,Humidity,Sea Level PressureIn,VisibilityMPH,Wind Direction,Wind SpeedMPH,Gust SpeedMPH,PrecipitationIn,Events,Conditions,WindDirDegrees,DateUTC
12:52 AM,23.0,14.0,68,30.20,10.0,SE,10.4,-,N/A,,Clear,140,2013-01-22 06:52:00
1:52 AM,23.0,14.0,68,30.19,10.0,SSE,8.1,-,N/A,,Clear,150,2013-01-22 07:52:00
2:52 AM,21.9,14.0,72,30.18,10.0,SSE,8.1,-,N/A,,Clear,160,2013-01-22 08:52:00
3:52 AM,23.0,14.0,68,30.15,10.0,South,9.2,-,N/A,,Clear,170,2013-01-22 09:52:00
4:52 AM,21.0,14.0,74,30.16,10.0,SSE,9.2,-,N/A,,Clear,160,2013-01-22 10:52:00
5:52 AM,19.9,14.0,78,30.15,10.0,South,6.9,-,N/A,,Clear,190,2013-01-22 11:52:00
6:52 AM,19.0,14.0,81,30.15,10.0,SSW,6.9,-,N/A,,Clear,200,2013-01-22 12:52:00
7:52 AM,19.0,14.0,81,30.18,10.0,SW,4.6,-,N/A,,Clear,220,2013-01-22 13:52:00
8:52 AM,24.1,17.1,75,30.19,10.0,NW,4.6,-,N/A,,Clear,320,2013-01-22 14:52:00
9:52 AM,28.0,19.0,69,30.21,10.0,North,6.9,-,N/A,,Clear,350,2013-01-22 15:52:00
10:52 AM,32.0,19.9,61,30.22,10.0,North,5.8,-,N/A,,Clear,350,2013-01-22 16:52:00
11:52 AM,34.0,19.0,54,30.21,10.0,NNE,10.4,-,N/A,,Clear,20,2013-01-22 17:52:00
12:52 PM,37.9,19.0,47,30.18,10.0,North,9.2,-,N/A,,Clear,350,2013-01-22 18:52:00
1:52 PM,42.1,19.9,41,30.16,10.0,NNE,5.8,-,N/A,,Clear,20,2013-01-22 19:52:00
2:52 PM,43.0,19.0,38,30.17,10.0,East,5.8,-,N/A,,Clear,80,2013-01-22 20:52:00
3:52 PM,44.1,19.9,38,30.17,10.0,ENE,4.6,-,N/A,,Clear,60,2013-01-22 21:52:00
4:52 PM,44.1,19.9,38,30.18,10.0,Calm,Calm,-,N/A,,Clear,0,2013-01-22 22:52:00
5:52 PM,36.0,19.0,50,30.20,10.0,SE,4.6,-,N/A,,Clear,130,2013-01-22 23:52:00
6:52 PM,30.9,19.0,61,30.22,10.0,Calm,Calm,-,N/A,,Clear,0,2013-01-23 00:52:00
7:52 PM,28.0,19.0,69,30.23,10.0,East,4.6,-,N/A,,Clear,80,2013-01-23 01:52:00
8:52 PM,28.0,18.0,66,30.25,10.0,Calm,Calm,-,N/A,,Clear,0,2013-01-23 02:52:00
9:52 PM,28.0,19.0,69,30.25,10.0,Calm,Calm,-,N/A,,Clear,0,2013-01-23 03:52:00
10:52 PM,27.0,18.0,69,30.26,10.0,Calm,Calm,-,N/A,,Clear,0,2013-01-23 04:52:00
11:52 PM,25.0,17.1,72,30.25,10.0,WSW,3.5,-,N/A,,Clear,250,2013-01-23 05:52:00